Zurück zum Katalog

STARLINK-3609

AktivKommunikationVLEO
NORAD 51808·PAYLOAD·🇺🇸 United States

Gestartet Feb 25, 2022 von Vandenberg Space Force Base

Loading…

Nächste Überflüge (nächste 24 Stunden)

TLE

AktuellSource: CelesTrak SupGP

Epoche: Sep 15, 2026, 02:42 UTC

1 51808C 22017AS  26258.11298611 -.00013044  00000+0 -37325-3 0  2580
2 51808  53.1577 196.6067 0001268  86.3619 299.1520 15.35400315    13

Verfolge STARLINK-3609 in Echtzeit mit AllMySat

Download on the App Store